Location: Elstree
(51.6403°N, 0.2969°W)
Time: 11:02:25
(UTC+00:00)

Tiangong - Pass Details

Date: 07 December 2022
Orbit: 382 x 386 km, 41.5° (Epoch: 07 February)

Event Time Altitude Azimuth Distance (km) Brightness Sun altitude
Rises 18:18:05 0° 248° (WSW) 2,250 3.2 -21.4°
Reaches altitude 10° 18:21:33 10° 208° (SSW) 1,396 1.1 -22.0°
Maximum altitude 18:22:18 11° 194° (SSW) 1,359 0.9 -22.1°
Enters shadow 18:22:51 10° 183° (S) 1,379 0.8 -22.2°
